**Search for your results by entering your last name OR bib number OR search by age group to compare your stats with others
Individual Search
 
Bib:
Last Name:
All Participants Search
 
Top Ten Women
PlaceNameTimePace
1.Deidra Zschiesche1:40:177:39/M
2.Angela Dees1:46:288:08/M
3.Rachel Hanson1:48:528:18/M
4.Ana Lopez1:50:468:27/M
5.Amy Simmons1:51:178:30/M
6.Monique Ecker1:51:508:32/M
7.Lauren Tisdale1:53:098:38/M
8.Whitney Frie1:53:378:40/M
9.Jamye Dennis1:54:188:44/M
10.Michelle Blackard1:55:518:51/M
Top Ten Men
PlaceNameTimePace
1.Jose Mejorada1:24:026:24/M
2.Eloy Gonzalez1:28:276:45/M
3.Zach Ginnings1:32:337:04/M
4.Jeff Scarella1:33:097:07/M
5.Andrew Young1:36:057:20/M
6.Neil Decker1:36:277:22/M
7.Nick Fosnaugh1:36:547:24/M
8.Brett Crossland1:37:257:26/M
9.Wade Braun1:37:567:28/M
10.David Boone1:38:137:30/M
Contact us for results help

Gallery of Events

Contact Us

Address:
172 Trademark Drive
Buda, Texas 78610

Phone:
(512) 386 - 7966

Email:
info@cadencesports.com